Regional Weather Roundup
Issued by NWS

Home | Current Version | Previous Version | Text Only | Print | Product List | Glossary Off
Versions: 1 2 3 4 5 6 7 8 9 10 11 12 13 14 15 16 17 18 19 20 21 22 23 24 25 26 27 28 29 30 31 32 33 34 35 36 37 38 39 40 41 42 43 44 45 46 47 48 49 50

000
ASUS45 KBOU 312007
RWRCO

WEATHER ROUNDUP FOR COLORADO
NATIONAL WEATHER SERVICE DENVER/BOULDER CO
200 PM MDT MON AUG 31 2015

NOTE: "FAIR" INDICATES FEW OR NO CLOUDS BELOW 12000 FEET WITH NO
SIGNIFICANT WEATHER AND/OR OBSTRUCTIONS TO VISIBILITY.

COZ001>005-013-030-031-312100-
...NORTHWEST COLORADO...

CITY           SKY/WX    TMP DP  RH WIND       PRES   REMARKS
CRAIG          PTSUNNY   79  48  33 W10       30.19F
HAYDEN         NOT AVBL
MEEKER         PTSUNNY   75  53  46 SW8       30.21F
MOUNT WERNER   NOT AVBL
STEAMBOAT SPGS PTSUNNY   69  50  51 E8        30.26S
WALDEN         PTSUNNY   70  43  37 SW10G16   30.31F
$$

COZ006>008-011-312100-
...WEST CENTRAL VALLEYS...

CITY           SKY/WX    TMP DP  RH WIND       PRES   REMARKS
GRAND JUNCTION MOSUNNY   78  53  41 VRB3      30.13F
MONTROSE       MOSUNNY   77  49  37 VRB6      30.21F
EAGLE          PTSUNNY   61  55  82 S10       30.34R
RIFLE          PTSUNNY   71  57  61 VRB6      30.21F
DELTA          MOSUNNY   81  53  37 SE3       30.17F
NUCLA          MOSUNNY   79  43  27 W6        30.23S
$$

COZ017>023-064>068-312100-
...SOUTHWEST COLORADO...

CITY           SKY/WX    TMP DP  RH WIND       PRES   REMARKS
DURANGO        MOSUNNY   78  45  30 SW12      30.23F
CORTEZ         PTSUNNY   80  49  33 MISG      30.19F
PAGOSA SPRINGS MOSUNNY   75  41  29 W7        30.31F
TELLURIDE      PTSUNNY   63  46  52 E14G21    30.44F
WOLF CREEK PAS CLOUDY    50  46  87 SW12G20   30.64S THUNDER
$$

COZ009-010-012-014-032>034-037-058>063-312100-
...CENTRAL COLORADO...

CITY           SKY/WX    TMP DP  RH WIND       PRES   REMARKS
ASPEN          CLOUDY    60  50  69 N12G21    30.37R
BUENA VISTA    PTSUNNY   70  39  33 CALM      30.30F
COPPER MTN     CLOUDY    52  43  71 W26G36    30.60F
BERTHOUD PASS  RAIN      41  30  65 NW14G21   30.65S
COTTONWOOD PAS NOT AVBL
GUNNISON       PTSUNNY   72  45  37 W5        30.31F
KREMMLING      CLOUDY    61  48  63 W5        30.34R
LEADVILLE      LGT RAIN  51  45  79 W8        30.47R
MONARCH PASS   PTSUNNY   55  41  58 SW21      30.71S
SALIDA         PTSUNNY   76  41  28 CALM      30.34S
SUNLIGHT       PTSUNNY   54  50  87 CALM      30.57S
WILKERSON PASS CLOUDY    59  32  36 SW3       30.57F
$$

COZ069>075-312100-
...SAN LUIS VALLEY/SANGRE DE CRISTO MOUNTAINS...

CITY           SKY/WX    TMP DP  RH WIND       PRES   REMARKS
ALAMOSA        PTSUNNY   78  41  26 NW6       30.25F
LA VETA PASS   PTSUNNY   70  36  28 MISG      30.46F
SAGUACHE       NOT AVBL
$$

COZ035-036-038>040-312100-
...NORTHERN COLORADO FRONT RANGE...

CITY           SKY/WX    TMP DP  RH WIND       PRES   REMARKS
DENVER INTL AP PTSUNNY   87  42  20 NW7       30.10F
DMNS CITY PARK   N/A     84  44  24 S5G20     30.08F
AURORA         PTSUNNY   85  44  23 SE7       30.11F
FRONT RANGE AP PTSUNNY   84  41  21 CALM      30.11F
ERIE MUNI ARPT PTSUNNY   86  38  18 NE6       30.07F
BOULDER MUN AP PTSUNNY   82  45  26 E3        30.08F
CENTENNIAL     PTSUNNY   83  42  23 NW7       30.13F
BROOMFIELD     PTSUNNY   84  43  23 SE8       30.12F
FORT COLLINS   MOSUNNY   86  48  26 SE7       30.06F
LONGMONT       MOSUNNY   89  43  19 E5        30.08F
$$

COZ041-046-047-076>085-087-088-312100-
...PIKES PEAK/PALMER DIVIDE AND SOUTHERN FOOTHILLS...

CITY           SKY/WX    TMP DP  RH WIND       PRES   REMARKS
COLO. SPRINGS  PTSUNNY   81  43  26 E7        30.15F
A. F. ACADEMY  PTSUNNY   78  43  28 SE8       30.17S
ELLICOTT       MOSUNNY  N/A N/A N/A VRB6G21   30.15F
FALCON         PTSUNNY   80  42  26 MISG      30.22S
FORT CARSON    MOSUNNY   83  46  26 VRB1      30.12F
LIMON          LGT RAIN  84  46  26 N12G24    30.10F
MONUMENT HILL  MOSUNNY   75  41  29 NE6       30.23S
TRINIDAD       PTSUNNY   80  45  28 W10G26    30.15R
$$

COZ042>045-048>051-090-091-312100-
...NORTHEAST COLORADO...

CITY           SKY/WX    TMP DP  RH WIND       PRES   REMARKS
GREELEY ARPT   MOSUNNY   84  45  24 E5        30.06F
AKRON          PTSUNNY   85  47  26 N8G17     30.06F
BURLINGTON     SUNNY     91  47  21 CALM      30.00F
WRAY           CLOUDY    98  44  15 N10G20    29.97F
STERLING       PTSUNNY   88  52  29 E12       30.01F
HOLYOKE        MOSUNNY   93  46  20 N14G23    30.00S
FORT MORGAN    PTSUNNY   82  43  25 N9        30.06S
$$

COZ086-089-092>099-312100-
...SOUTHEAST COLORADO...

CITY           SKY/WX    TMP DP  RH WIND       PRES   REMARKS
PUEBLO         MOSUNNY   93  44  18 VRB3      30.02F
LA JUNTA       SUNNY     98  47  17 N15G23    29.98F
LAMAR          SUNNY     92  55  28 VRB5      29.91F
SPRINGFIELD    NOT AVBL
$$




USA.gov is the U.S. government's official web portal to all federal, state and local government web resources and services.